Location: Vancouver
(49.2500°N, 123.1330°W)
Time: 21:01:50
(UTC-07:00)

Iridium 21 - Visible Passes

Search period start: 30 September 2014 00:00
Search period end: 10 October 2014 00:00
Orbit: 776 x 779 km, 86.4° (Epoch: 30 September)

Date Brightness Start Highest point End Pass type
(mag) Time Alt. Az. Time Alt. Az. Time Alt. Az.
30 Sep 8.9 04:57:44 10° NE 04:59:43 12° ENE 05:01:40 10° E visible
30 Sep 5.8 06:36:10 10° N 06:41:25 76° E 06:46:36 10° S visible
30 Sep 6.2 19:37:24 10° SSW 19:42:32 61° W 19:47:43 10° N visible
01 Oct 6.9 06:02:46 10° N 06:07:46 44° E 06:12:44 10° SSE visible
01 Oct 8.6 20:47:10 10° WSW 20:50:24 16° WNW 20:53:38 10° NNW visible
02 Oct 7.8 05:29:36 10° NNE 05:34:00 27° ENE 05:38:23 10° SE visible
02 Oct 7.9 20:12:08 10° SW 20:16:29 27° WNW 20:20:53 10° NNW visible
03 Oct 8.5 04:56:51 10° NNE 05:00:06 16° ENE 05:03:21 10° ESE visible
03 Oct 5.5 06:36:17 10° N 06:41:31 79° W 06:46:43 10° S visible
03 Oct 6.9 19:37:46 10° SSW 19:42:43 44° W 19:47:43 10° N visible
04 Oct 6.1 06:02:46 10° N 06:07:57 61° E 06:13:06 10° SSE visible
04 Oct 8.9 20:48:52 10° W 20:50:47 12° WNW 20:52:43 10° NW visible
05 Oct 7.2 05:29:27 10° N 05:34:16 36° ENE 05:39:03 10° SE visible
05 Oct 8.4 20:13:02 10° WSW 20:16:48 20° WNW 20:20:35 10° NNW visible
06 Oct 8.0 04:56:24 10° NNE 05:00:27 22° ENE 05:04:27 10° ESE visible
06 Oct 5.6 06:36:28 10° N 06:41:34 57° W 06:46:39 10° SSW visible
06 Oct 7.6 19:38:18 10° SW 19:42:57 32° WNW 19:47:37 10° NNW visible
07 Oct 8.6 04:23:58 10° NE 04:26:29 13° ENE 04:29:00 10° E visible
07 Oct 5.6 06:02:50 10° N 06:08:05 84° E 06:13:18 10° S visible
07 Oct 6.5 19:04:08 10° SSW 19:09:14 54° W 19:14:21 10° N visible
08 Oct 6.5 05:29:23 10° N 05:34:28 50° E 05:39:31 10° SSE visible
08 Oct 8.6 20:14:18 10° W 20:17:09 15° WNW 20:20:01 10° NNW visible
09 Oct 7.5 04:56:10 10° NNE 05:00:44 30° ENE 05:05:16 10° SE visible
09 Oct 5.9 06:36:42 10° NNW 06:41:35 41° W 06:46:26 10° SSW visible
09 Oct 8.1 19:39:02 10° SW 19:43:13 24° WNW 19:47:25 10° NNW visible
